カタログに戻る

HULIANWANG DIGUI-90

運用中通信LEO
NORAD 65998·PAYLOAD·🇨🇳 China

打ち上げ Oct 16, 2025 から Wenchang Space Launch Site

Loading…

次のパス (今後24時間)

TLE

最新Source: Space-Track

元期: Sep 14, 2026, 07:28 UTC

1 65998U 25231D   26257.31120352 -.00000095  00000-0  61649-4 0  9994
2 65998  49.9980 216.0064 0000355  42.3827 317.7072 13.29329219 44743

AllMySatでHULIANWANG DIGUI-90をリアルタイム追跡

Download on the App Store